Weather History for KSGT - January, 2013

Change the Weather History Date:

Wednesday, January 30, 2013

  Actual Average Record
Temperature  
Mean Temperature 45 °F -  
Max Temperature 55 °F 48 °F 77 °F (2002)
Min Temperature 35 °F 34 °F 15 °F (2000)
Degree Days  
Heating Degree Days 20    
Moisture  
Dew Point 36 °F    
Average Humidity 68    
Maximum Humidity 88    
Minimum Humidity 53    
Precipitation  
Precipitation 0.03 in - - ()
Sea Level Pressure  
Sea Level Pressure 29.79 in    
Wind  
Wind Speed 14 mph (West)    
Max Wind Speed 30 mph    
Max Gust Speed 38 mph    
Visibility 10 miles    
Events      
Averages and records for this station are not official NWS values.
T = Trace of Precipitation, MM = Missing Value Source: NWS Daily Summary

Daily Weather History Graph

Daily Weather History Graph

Search for Another Location

Airport or City:

Trip Planner

Search our weather history database for the weather conditions in past years. The results will help you decide how hot, cold, wet, or windy it might be!

Date:

Astronomy

Jan. 30, 2013 Rise Set
Actual Time 7:05 AM CST 5:34 PM CST
Civil Twilight 6:39 AM CST 6:00 PM CST
Nautical Twilight 6:08 AM CST 6:30 PM CST
Astronomical Twilight 5:39 AM CST 7:00 PM CST
Moon 9:20 PM CST (1/30) 8:44 AM CST (1/30)
Length of Visible Light 11h 21m
Length of Day
10h 28m
Waning Gibbous, 87% of the Moon is Illuminated
Jan 30
Waning Gibbous
Feb 3
Last Quarter
Feb 10
New
Feb 17
First Quarter
Feb 25
Full

Hourly Weather History & Observations

Time (CST) Temp. Windchill Dew Point Humidity Pressure Visibility Wind Dir Wind Speed Gust Speed Precip Events Conditions
12:55 AM 55.4 °F - 51.8 °F 88% 29.61 in 10.0 mi WNW 9.2 mph - 0.01 in   Overcast
1:15 AM 55.4 °F - 51.8 °F 88% 29.62 in 10.0 mi WNW 5.8 mph - 0.01 in   Overcast
1:35 AM 55.4 °F - 51.8 °F 88% 29.62 in 10.0 mi Calm Calm - 0.01 in   Overcast
1:55 AM 55.4 °F - 51.8 °F 88% 29.61 in 10.0 mi Calm Calm - 0.02 in   Overcast
2:55 AM 55.4 °F - 51.8 °F 88% 29.61 in 10.0 mi South 8.1 mph - N/A   Overcast
3:15 AM 55.4 °F - 51.8 °F 88% 29.62 in 10.0 mi South 12.7 mph - N/A   Overcast
3:35 AM 55.4 °F - 51.8 °F 88% 29.61 in 10.0 mi South 10.4 mph - N/A   Overcast
3:55 AM 55.4 °F - 50.0 °F 82% 29.60 in 10.0 mi South 9.2 mph - N/A   Overcast
4:15 AM 55.4 °F - 50.0 °F 82% 29.60 in 10.0 mi SSW 9.2 mph - N/A   Overcast
4:36 AM 53.6 °F - 50.0 °F 88% 29.59 in 10.0 mi South 11.5 mph - N/A   Overcast
4:55 AM 53.6 °F - 50.0 °F 88% 29.59 in 10.0 mi SSW 13.8 mph - N/A   Overcast
5:15 AM 53.6 °F - 50.0 °F 88% 29.60 in 10.0 mi South 16.1 mph 19.6 mph N/A   Overcast
5:55 AM 53.6 °F - 48.2 °F 82% 29.58 in 10.0 mi SSW 17.3 mph - N/A   Overcast
6:15 AM 53.6 °F - 46.4 °F 77% 29.59 in 10.0 mi SW 18.4 mph 24.2 mph N/A   Overcast
6:55 AM 53.6 °F - 44.6 °F 72% 29.59 in 10.0 mi SW 16.1 mph 21.9 mph N/A   Mostly Cloudy
7:15 AM 53.6 °F - 44.6 °F 72% 29.61 in 10.0 mi SW 18.4 mph - N/A   Overcast
7:35 AM 51.8 °F - 42.8 °F 71% 29.63 in 10.0 mi WSW 18.4 mph 23.0 mph N/A   Mostly Cloudy
7:55 AM 51.8 °F - 42.8 °F 71% 29.64 in 10.0 mi WSW 18.4 mph 27.6 mph N/A   Mostly Cloudy
8:15 AM 51.8 °F - 42.8 °F 71% 29.64 in 10.0 mi WSW 21.9 mph 27.6 mph N/A   Overcast
8:35 AM 51.8 °F - 42.8 °F 71% 29.64 in 10.0 mi WSW 19.6 mph 25.3 mph N/A   Mostly Cloudy
8:56 AM 51.8 °F - 42.8 °F 71% 29.64 in 10.0 mi WSW 18.4 mph - N/A   Mostly Cloudy
9:15 AM 51.8 °F - 42.8 °F 71% 29.64 in 10.0 mi West 19.6 mph 25.3 mph N/A   Mostly Cloudy
9:35 AM 51.8 °F - 41.0 °F 67% 29.64 in 10.0 mi West 18.4 mph 32.2 mph N/A   Overcast
9:55 AM 51.8 °F - 39.2 °F 62% 29.65 in 10.0 mi West 21.9 mph 28.8 mph N/A   Mostly Cloudy
10:15 AM 48.2 °F - 39.2 °F 71% 29.69 in 10.0 mi West 18.4 mph 27.6 mph N/A   Overcast
10:55 AM 48.2 °F - 37.4 °F 66% 29.68 in 10.0 mi WNW 24.2 mph 29.9 mph N/A   Mostly Cloudy
11:15 AM 46.4 °F 38.3 °F 35.6 °F 66% 29.71 in 10.0 mi West 23.0 mph 31.1 mph N/A   Overcast
11:36 AM 46.4 °F 38.7 °F 35.6 °F 66% 29.72 in 10.0 mi West 20.7 mph - N/A   Overcast
11:55 AM 44.6 °F 35.1 °F 33.8 °F 66% 29.74 in 10.0 mi West 27.6 mph 31.1 mph N/A   Overcast
12:15 PM 44.6 °F 35.1 °F 30.2 °F 57% 29.74 in 10.0 mi West 27.6 mph 38.0 mph N/A   Overcast
12:55 PM 46.4 °F 37.2 °F 30.2 °F 53% 29.74 in 10.0 mi West 29.9 mph 34.5 mph N/A   Overcast
1:35 PM 44.6 °F 34.9 °F 30.2 °F 57% 29.78 in 10.0 mi West 28.8 mph 35.7 mph N/A   Overcast
1:56 PM 44.6 °F 35.5 °F 30.2 °F 57% 29.79 in 10.0 mi West 25.3 mph 33.4 mph N/A   Overcast
2:15 PM 44.6 °F 35.5 °F 30.2 °F 57% 29.79 in 10.0 mi West 25.3 mph 34.5 mph N/A   Overcast
2:35 PM 44.6 °F 35.5 °F 28.4 °F 53% 29.80 in 10.0 mi West 25.3 mph 38.0 mph N/A   Overcast
2:56 PM 44.6 °F 35.3 °F 28.4 °F 53% 29.82 in 10.0 mi WNW 26.5 mph 33.4 mph N/A   Overcast
3:15 PM 44.6 °F 34.9 °F 28.4 °F 53% 29.84 in 10.0 mi West 28.8 mph 36.8 mph N/A   Overcast
3:35 PM 44.6 °F 35.5 °F 28.4 °F 53% 29.84 in 10.0 mi WNW 25.3 mph 36.8 mph N/A   Overcast
4:15 PM 44.6 °F 35.7 °F 28.4 °F 53% 29.87 in 10.0 mi WNW 24.2 mph 34.5 mph N/A   Overcast
4:35 PM 44.6 °F 36.1 °F 28.4 °F 53% 29.89 in 10.0 mi West 21.9 mph 28.8 mph N/A   Mostly Cloudy
5:15 PM 42.8 °F 33.8 °F 26.6 °F 53% 29.92 in 10.0 mi West 21.9 mph 31.1 mph N/A   Mostly Cloudy
5:35 PM 42.8 °F 35.1 °F 26.6 °F 53% 29.93 in 10.0 mi WNW 16.1 mph 26.5 mph N/A   Mostly Cloudy
6:15 PM 41.0 °F 30.9 °F 24.8 °F 53% 29.97 in 10.0 mi West 24.2 mph 31.1 mph N/A   Partly Cloudy
6:35 PM 39.2 °F 29.0 °F 24.8 °F 56% 29.98 in 10.0 mi WNW 21.9 mph 27.6 mph N/A   Clear
6:55 PM 39.2 °F 30.2 °F 26.6 °F 61% 29.99 in 10.0 mi WNW 17.3 mph 23.0 mph N/A   Clear
7:15 PM 39.2 °F 31.6 °F 26.6 °F 61% 30.00 in 10.0 mi WNW 12.7 mph - N/A   Clear
7:35 PM 39.2 °F 30.8 °F 26.6 °F 61% 30.01 in 10.0 mi WNW 15.0 mph - N/A   Clear
7:55 PM 39.2 °F 31.2 °F 26.6 °F 61% 30.03 in 10.0 mi WNW 13.8 mph - N/A   Clear
8:35 PM 37.4 °F 28.9 °F 26.6 °F 65% 30.05 in 10.0 mi West 13.8 mph - N/A   Clear
8:55 PM 37.4 °F 29.8 °F 26.6 °F 65% 30.06 in 10.0 mi West 11.5 mph - N/A   Clear
9:35 PM 37.4 °F 30.8 °F 26.6 °F 65% 30.07 in 10.0 mi WNW 9.2 mph - N/A   Clear
9:55 PM 37.4 °F 29.8 °F 26.6 °F 65% 30.08 in 10.0 mi West 11.5 mph - N/A   Clear
10:15 PM 37.4 °F 28.9 °F 26.6 °F 65% 30.07 in 10.0 mi West 13.8 mph - N/A   Clear
10:36 PM 37.4 °F 28.9 °F 26.6 °F 65% 30.08 in 10.0 mi West 13.8 mph - N/A   Clear
10:55 PM 37.4 °F 28.5 °F 26.6 °F 65% 30.09 in 10.0 mi West 15.0 mph - N/A   Clear
11:15 PM 37.4 °F 29.3 °F 26.6 °F 65% 30.09 in 10.0 mi West 12.7 mph 18.4 mph N/A   Clear
11:35 PM 35.6 °F 27.5 °F 26.6 °F 70% 30.09 in 10.0 mi WNW 11.5 mph - N/A   Clear
11:55 PM 35.6 °F 28.0 °F 26.6 °F 70% 30.09 in 10.0 mi WNW 10.4 mph - N/A   Clear